Location: Newark
(19.5361°N, 155.5761°W)
Time: 19:05:52
(UTC+00:00)

TIGRISAT - Visible Passes

Search period start: 10 April 2020 00:00
Search period end: 20 April 2020 00:00
Orbit: 606 x 688 km, 97.7° (Epoch: 10 April)

Date Brightness Start Highest point End Pass type
(mag) Time Alt. Az. Time Alt. Az. Time Alt. Az.
10 Apr ? 07:26:38 10° NNW 07:26:44 10° NNW 07:26:44 10° NNW visible
11 Apr ? 06:14:50 10° NNE 06:15:04 11° NNE 06:15:04 11° NNE visible
12 Apr ? 06:40:16 10° N 06:41:09 16° N 06:41:09 16° N visible
13 Apr ? 07:06:14 10° N 07:07:13 16° NNW 07:07:13 16° NNW visible
14 Apr ? 07:33:01 10° NW 07:33:17 11° NW 07:33:17 11° NW visible
15 Apr ? 06:20:41 10° NNE 06:21:37 16° NNE 06:21:37 16° NNE visible
16 Apr ? 06:46:14 10° N 06:47:40 20° N 06:47:40 20° N visible
17 Apr ? 07:12:22 10° NNW 07:13:44 17° NNW 07:13:44 17° NNW visible
18 Apr ? 06:01:26 10° NE 06:02:03 13° NE 06:02:03 13° NE visible
18 Apr ? 07:39:33 10° NW 07:39:48 11° NW 07:39:48 11° NW visible
19 Apr ? 06:26:33 10° NNE 06:28:07 22° NNE 06:28:07 22° NNE visible
